Weather History for Girona, Spain

Change the Weather History Date:

Monday, February 4, 2013

  Actual Average Record
Temperature  
Mean Temperature 44 °F -  
Max Temperature 59 °F 58 °F 66 °F (1999)
Min Temperature 28 °F 36 °F 26 °F (2012)
Degree Days  
Heating Degree Days 22    
Moisture  
Dew Point 24 °F    
Average Humidity 55    
Maximum Humidity 81    
Minimum Humidity 21    
Precipitation  
Precipitation 0.00 in 0.07 in - ()
Sea Level Pressure  
Sea Level Pressure 30.26 in    
Wind  
Wind Speed 1 mph ()    
Max Wind Speed 8 mph    
Max Gust Speed -    
Visibility 7.7 miles    
Events      
Averages and records for this station are not official NWS values.
T = Trace of Precipitation, MM = Missing Value Source: Averaged Metar Reports

Daily Weather History Graph

Daily Weather History Graph

Search for Another Location

Airport:

Trip Planner

Search our weather history database for the weather conditions in past years. The results will help you decide how hot, cold, wet, or windy it might be!

Date:

Astronomy

Feb. 04, 2013 Rise Set
Actual Time 7:58 AM CET 6:07 PM CET
Civil Twilight 7:29 AM CET 6:37 PM CET
Nautical Twilight 6:55 AM CET 7:10 PM CET
Astronomical Twilight 6:23 AM CET 7:43 PM CET
Moon 2:17 AM CET (2/4) 12:17 PM CET (2/4)
Length of Visible Light 11h 08m
Length of Day
10h 09m
Last Quarter, 40% of the Moon is Illuminated
Feb 4
Last Quarter
Feb 10
New
Feb 17
First Quarter
Feb 25
Full
Mar 4
Last Quarter

Hourly Weather History & Observations

Time (CET) Temp. Windchill Dew Point Humidity Pressure Visibility Wind Dir Wind Speed Gust Speed Precip Events Conditions
12:00 AM 35.6 °F 32.8 °F 17.6 °F 48% 30.27 in - WNW 3.5 mph - N/A   Clear
12:30 AM 33.8 °F - 19.4 °F 56% 30.27 in - Calm Calm - N/A   Clear
1:00 AM 34 °F - 21 °F 46% 30.29 in - Calm Calm - -  
1:00 AM 32.0 °F - 19.4 °F 60% 30.27 in - Calm Calm - N/A   Clear
1:30 AM 32.0 °F - 19.4 °F 60% 30.27 in - Calm Calm - N/A   Clear
2:00 AM 32.0 °F - 19.4 °F 60% 30.27 in - Calm Calm - N/A   Clear
2:30 AM 30.2 °F 23.4 °F 19.4 °F 64% 30.27 in - NNE 6.9 mph - N/A   Clear
3:00 AM 35.6 °F 29.2 °F 17.6 °F 48% 30.27 in - North 8.1 mph - N/A   Clear
3:30 AM 32.0 °F - 19.4 °F 60% 30.27 in - Calm Calm - N/A   Clear
4:00 AM 32.0 °F 28.7 °F 17.6 °F 55% 30.27 in - Variable 3.5 mph - N/A   Clear
4:30 AM 30.2 °F - 19.4 °F 64% 30.27 in - SE 1.2 mph - N/A   Clear
5:00 AM 28.4 °F - 19.4 °F 69% 30.27 in - Variable 1.2 mph - N/A   Clear
5:30 AM 30.2 °F - 19.4 °F 64% 30.27 in - Calm Calm - N/A   Clear
6:00 AM 28.4 °F - 21.2 °F 74% 30.27 in - Variable 2.3 mph - N/A   Clear
6:30 AM 28.4 °F - 21.2 °F 74% 30.27 in - Variable 2.3 mph - N/A   Clear
7:00 AM 30 °F - 22 °F 63% 30.30 in - Calm Calm - -  
7:00 AM 28.4 °F - 21.2 °F 74% 30.27 in - WNW 1.2 mph - N/A   Clear
7:30 AM 28.4 °F - 21.2 °F 74% 30.27 in - Calm Calm - N/A   Clear
8:00 AM 28.4 °F - 21.2 °F 74% 30.30 in 6.2 mi Calm Calm - N/A   Partly Cloudy
8:30 AM 28.4 °F - 21.2 °F 74% 30.30 in 6.2 mi West 1.2 mph - N/A   Partly Cloudy
9:00 AM 32.0 °F - 23.0 °F 69% 30.30 in 6.2 mi Calm Calm - N/A   Partly Cloudy
9:30 AM 35.6 °F - 24.8 °F 65% 30.30 in 6.2 mi Calm Calm - N/A   Partly Cloudy
10:00 AM 35.6 °F - 24.8 °F 65% 30.30 in 6.2 mi Calm Calm - N/A   Partly Cloudy
12:30 PM 50.0 °F - 26.6 °F 40% 30.27 in 6.2 mi Variable 1.2 mph - N/A   Partly Cloudy
1:00 PM 56 °F - 27 °F 21% 30.25 in 19 mi South 2.3 mph - -   Scattered Clouds
1:00 PM 51.8 °F - 26.6 °F 38% 30.27 in 6.2 mi Variable 2.3 mph - N/A   Partly Cloudy
1:30 PM 53.6 °F - 26.6 °F 35% 30.24 in 6.2 mi Variable 2.3 mph - N/A   Partly Cloudy
2:00 PM 53.6 °F - 26.6 °F 35% 30.24 in 6.2 mi South 3.5 mph - N/A   Partly Cloudy
2:30 PM 53.6 °F - 24.8 °F 33% 30.21 in 6.2 mi Calm Calm - N/A   Partly Cloudy
3:00 PM 55.4 °F - 26.6 °F 33% 30.21 in 6.2 mi Variable 1.2 mph - N/A   Partly Cloudy
3:30 PM 55.4 °F - 21.2 °F 26% 30.21 in 6.2 mi Variable 2.3 mph - N/A   Partly Cloudy
4:00 PM 55.4 °F - 21.2 °F 26% 30.24 in 6.2 mi Calm Calm - N/A   Partly Cloudy
4:30 PM 55.4 °F - 23.0 °F 29% 30.21 in 6.2 mi Variable 1.2 mph - N/A   Partly Cloudy
5:00 PM 55.4 °F - 26.6 °F 33% 30.24 in 6.2 mi Calm Calm - N/A   Partly Cloudy
5:30 PM 53.6 °F - 24.8 °F 33% 30.24 in - Calm Calm - N/A   Clear
6:00 PM 51.8 °F - 30.2 °F 44% 30.24 in - Variable 1.2 mph - N/A   Clear
6:30 PM 48.2 °F - 28.4 °F 46% 30.24 in - South 1.2 mph - N/A   Clear
7:00 PM 49 °F - 29 °F 34% 30.26 in 19 mi West 2.3 mph - -  
7:00 PM 46.4 °F - 28.4 °F 50% 30.24 in - WSW 1.2 mph - N/A   Clear
7:30 PM 42.8 °F - 30.2 °F 61% 30.24 in - Calm Calm - N/A   Clear
8:00 PM 44.6 °F - 30.2 °F 57% 30.24 in - ENE 1.2 mph - N/A   Clear
8:30 PM 42.8 °F - 30.2 °F 61% 30.24 in - Calm Calm - N/A   Clear
9:00 PM 39.2 °F - 30.2 °F 70% 30.27 in - Calm Calm - N/A   Clear
9:30 PM 41.0 °F - 30.2 °F 65% 30.24 in - Variable 2.3 mph - N/A   Clear
10:30 PM 39.2 °F - 32.0 °F 75% 30.24 in - Calm Calm - N/A   Clear
11:00 PM 37.4 °F - 32.0 °F 81% 30.24 in - Calm Calm - N/A   Clear
11:30 PM 37.4 °F - 32.0 °F 81% 30.24 in - Calm Calm - N/A   Clear